Torna al catalogo

STARLINK-2367

AttivoComunicazioniVLEO
NORAD 47907·PAYLOAD·🇺🇸 United States

Lanciato Mar 14, 2021 da Cape Canaveral Space Force Station

Loading…

Prossimi Passaggi (prossime 24 ore)

TLE

AggiornatoSource: CelesTrak SupGP

Epoca: Sep 14, 2026, 13:06 UTC

1 47907C 21021AZ  26257.54631944  .00040457  00000+0  13014-2 0  2578
2 47907  53.1568 122.2290 0001111  92.1175  89.7966 15.31671404    12

Traccia STARLINK-2367 in tempo reale con AllMySat

Download on the App Store